RYR378 EGNT-EGPO

Flight info

Callsign RYR378
Flight time 0h 53m
Altitude 18000
Route NATEB Y96 TLA DCT GOW DCT INBAS N560 RIMOL Y906 STN
Aircraft B738/M-SDE2E3FGHIRWXY/LB1

Departure

Time 2026-05-07 20:22
Airport Newcastle International Airport (EGNT)

Arrival

Time 2026-05-07 21:16
Airport Stornoway Airport (EGPO)
Time Latitude Longitude Altitude Speed Heading
2026-05-07 20:22 55.00549 -1.81799 4029 ft 232 kts 243°
2026-05-07 20:22 54.99942 -1.84484 4664 ft 249 kts 255°
2026-05-07 20:23 55.00023 -1.87530 5586 ft 260 kts 284°
2026-05-07 20:23 55.00978 -1.90242 6604 ft 270 kts 313°
2026-05-07 20:23 55.02657 -1.91805 7481 ft 282 kts 342°
2026-05-07 20:23 55.04607 -1.92467 8294 ft 288 kts 347°
2026-05-07 20:24 55.06605 -1.93079 9101 ft 293 kts 346°
2026-05-07 20:24 55.08623 -1.93722 9949 ft 297 kts 346°
2026-05-07 20:24 55.10678 -1.94457 10499 ft 308 kts 340°
2026-05-07 20:24 55.12567 -1.96272 10663 ft 324 kts 313°
2026-05-07 20:25 55.13943 -1.99477 10858 ft 339 kts 297°
2026-05-07 20:25 55.15131 -2.03182 11100 ft 358 kts 295°
2026-05-07 20:25 55.16338 -2.07056 11635 ft 366 kts 295°
2026-05-07 20:25 55.17579 -2.10992 12304 ft 371 kts 296°
2026-05-07 20:26 55.18852 -2.14965 13003 ft 376 kts 296°
2026-05-07 20:26 55.20155 -2.18983 13671 ft 381 kts 296°
2026-05-07 20:26 55.21477 -2.23028 14415 ft 382 kts 296°
2026-05-07 20:26 55.22792 -2.27044 14912 ft 387 kts 296°
2026-05-07 20:27 55.24133 -2.31139 15424 ft 387 kts 296°
2026-05-07 20:27 55.25477 -2.35244 15942 ft 388 kts 296°
2026-05-07 20:27 55.26828 -2.39388 16467 ft 392 kts 296°
2026-05-07 20:27 55.28186 -2.43559 16995 ft 394 kts 296°
2026-05-07 20:28 55.29557 -2.47788 17295 ft 402 kts 296°
2026-05-07 20:28 55.30927 -2.52027 17561 ft 403 kts 296°
2026-05-07 20:28 55.32311 -2.56307 17824 ft 400 kts 296°
2026-05-07 20:28 55.33685 -2.60562 18007 ft 403 kts 296°
2026-05-07 20:29 55.35067 -2.64856 17988 ft 402 kts 296°
2026-05-07 20:29 55.36441 -2.69132 17994 ft 401 kts 296°
2026-05-07 20:29 55.37810 -2.73416 17995 ft 401 kts 295°
2026-05-07 20:29 55.39178 -2.77723 18017 ft 409 kts 295°
2026-05-07 20:30 55.40587 -2.82173 18000 ft 421 kts 295°
2026-05-07 20:30 55.42009 -2.86658 18004 ft 427 kts 296°
2026-05-07 20:30 55.43456 -2.91223 17985 ft 424 kts 296°
2026-05-07 20:30 55.44887 -2.95748 17973 ft 421 kts 295°
2026-05-07 20:31 55.46096 -3.00394 17974 ft 415 kts 286°
2026-05-07 20:31 55.46814 -3.05283 17980 ft 411 kts 277°
2026-05-07 20:31 55.47301 -3.10261 17981 ft 412 kts 276°
2026-05-07 20:31 55.47795 -3.15257 17973 ft 414 kts 277°
2026-05-07 20:32 55.48312 -3.20273 18003 ft 415 kts 277°
2026-05-07 20:32 55.48835 -3.25233 17987 ft 416 kts 277°
2026-05-07 20:32 55.49370 -3.30251 17977 ft 417 kts 278°
2026-05-07 20:32 55.50156 -3.35202 17991 ft 421 kts 287°
2026-05-07 20:33 55.51387 -3.39905 17973 ft 424 kts 296°
2026-05-07 20:33 55.52928 -3.44337 17979 ft 423 kts 298°
2026-05-07 20:33 55.54469 -3.48684 17967 ft 421 kts 298°
2026-05-07 20:33 55.56020 -3.53077 17968 ft 420 kts 297°
2026-05-07 20:34 55.57559 -3.57466 17959 ft 420 kts 297°
2026-05-07 20:34 55.59089 -3.61867 17955 ft 419 kts 297°
2026-05-07 20:34 55.60612 -3.66275 17949 ft 419 kts 297°
2026-05-07 20:34 55.62128 -3.70684 17976 ft 419 kts 297°
2026-05-07 20:35 55.63642 -3.75104 17949 ft 420 kts 297°
2026-05-07 20:35 55.65158 -3.79538 17949 ft 421 kts 297°
2026-05-07 20:35 55.66673 -3.83976 17951 ft 421 kts 297°
2026-05-07 20:35 55.68170 -3.88369 17969 ft 422 kts 297°
2026-05-07 20:36 55.69688 -3.92830 17981 ft 422 kts 297°
2026-05-07 20:36 55.71207 -3.97302 17962 ft 422 kts 297°
2026-05-07 20:36 55.72722 -4.01769 17970 ft 421 kts 296°
2026-05-07 20:36 55.74282 -4.06377 17957 ft 420 kts 296°
2026-05-07 20:37 55.75788 -4.10837 17955 ft 419 kts 296°
2026-05-07 20:37 55.77285 -4.15277 17960 ft 418 kts 296°
2026-05-07 20:37 55.78275 -4.18220 17962 ft 418 kts 296°
2026-05-07 20:37 55.79890 -4.23025 17968 ft 418 kts 296°
2026-05-07 20:38 55.81360 -4.27404 17963 ft 418 kts 296°
2026-05-07 20:38 55.82848 -4.31847 17965 ft 418 kts 296°
2026-05-07 20:38 55.84354 -4.36284 17966 ft 419 kts 299°
2026-05-07 20:38 55.86374 -4.40106 17967 ft 431 kts 320°
2026-05-07 20:39 55.89062 -4.42543 17977 ft 441 kts 338°
2026-05-07 20:39 55.92108 -4.43526 17961 ft 450 kts 356°
2026-05-07 20:39 55.95211 -4.43042 17983 ft 453 kts
2026-05-07 20:39 55.98337 -4.42277 17963 ft 454 kts
2026-05-07 20:40 56.01465 -4.41464 17953 ft 454 kts
2026-05-07 20:40 56.04592 -4.40653 17949 ft 453 kts
2026-05-07 20:40 56.07715 -4.39867 17955 ft 453 kts
2026-05-07 20:40 56.10842 -4.39102 17946 ft 453 kts
2026-05-07 20:41 56.13972 -4.38353 17938 ft 453 kts
2026-05-07 20:41 56.17108 -4.37612 17940 ft 453 kts
2026-05-07 20:41 56.20188 -4.36888 17947 ft 453 kts
2026-05-07 20:41 56.23317 -4.36153 17950 ft 453 kts
2026-05-07 20:42 56.26447 -4.35416 17940 ft 454 kts
2026-05-07 20:42 56.29589 -4.34675 17933 ft 454 kts
2026-05-07 20:42 56.32719 -4.33934 17930 ft 454 kts
2026-05-07 20:42 56.35848 -4.33190 17928 ft 453 kts
2026-05-07 20:43 56.38979 -4.32446 17930 ft 453 kts
2026-05-07 20:43 56.42107 -4.31701 17949 ft 454 kts
2026-05-07 20:43 56.45241 -4.30953 17914 ft 454 kts
2026-05-07 20:43 56.48374 -4.30204 17918 ft 454 kts
2026-05-07 20:44 56.51503 -4.29454 17943 ft 453 kts
2026-05-07 20:44 56.54641 -4.28702 17922 ft 453 kts
2026-05-07 20:44 56.57733 -4.27960 17920 ft 453 kts
2026-05-07 20:44 56.60859 -4.27208 17915 ft 452 kts
2026-05-07 20:45 56.63986 -4.26454 17928 ft 452 kts
2026-05-07 20:45 56.67110 -4.25700 17907 ft 453 kts
2026-05-07 20:45 56.70235 -4.24944 17906 ft 453 kts
2026-05-07 20:45 56.73365 -4.24185 17913 ft 453 kts
2026-05-07 20:46 56.76455 -4.23434 17920 ft 453 kts
2026-05-07 20:46 56.79615 -4.22666 17922 ft 453 kts
2026-05-07 20:46 56.82712 -4.21911 17904 ft 453 kts
2026-05-07 20:46 56.85841 -4.21147 17920 ft 453 kts
2026-05-07 20:47 56.88972 -4.20381 17904 ft 453 kts
2026-05-07 20:47 56.92100 -4.19617 17900 ft 453 kts
2026-05-07 20:47 56.95226 -4.18855 17897 ft 453 kts
2026-05-07 20:47 56.98349 -4.18095 17911 ft 453 kts
2026-05-07 20:48 57.01474 -4.17333 17898 ft 453 kts
2026-05-07 20:48 57.04596 -4.16568 17906 ft 453 kts
2026-05-07 20:48 57.07680 -4.15812 17894 ft 453 kts
2026-05-07 20:48 57.10805 -4.15044 17893 ft 453 kts
2026-05-07 20:49 57.13943 -4.14268 17862 ft 454 kts
2026-05-07 20:49 57.17069 -4.13478 17876 ft 453 kts
2026-05-07 20:49 57.20196 -4.12683 17881 ft 453 kts
2026-05-07 20:49 57.23324 -4.11891 17875 ft 453 kts
2026-05-07 20:50 57.26451 -4.11110 17880 ft 453 kts
2026-05-07 20:50 57.29570 -4.10334 17877 ft 453 kts
2026-05-07 20:50 57.32694 -4.09555 17898 ft 453 kts
2026-05-07 20:50 57.35822 -4.08772 17886 ft 453 kts
2026-05-07 20:51 57.38943 -4.08001 17885 ft 452 kts
2026-05-07 20:51 57.42061 -4.07234 17876 ft 452 kts
2026-05-07 20:51 57.45148 -4.06472 17886 ft 452 kts
2026-05-07 20:51 57.48260 -4.05737 17880 ft 450 kts
2026-05-07 20:52 57.51347 -4.06155 17881 ft 442 kts 341°
2026-05-07 20:52 57.54133 -4.08403 17894 ft 433 kts 324°
2026-05-07 20:52 57.56494 -4.11803 17885 ft 426 kts 310°
2026-05-07 20:52 57.58295 -4.16120 17897 ft 418 kts 297°
2026-05-07 20:53 57.59779 -4.20792 17880 ft 419 kts 295°
2026-05-07 20:53 57.61232 -4.25501 17892 ft 419 kts 295°
2026-05-07 20:53 57.62679 -4.30170 17879 ft 419 kts 295°
2026-05-07 20:53 57.64152 -4.34862 17866 ft 419 kts 295°
2026-05-07 20:54 57.65636 -4.39542 17857 ft 418 kts 296°
2026-05-07 20:54 57.67120 -4.44207 17843 ft 418 kts 296°
2026-05-07 20:54 57.68606 -4.48883 17840 ft 417 kts 296°
2026-05-07 20:54 57.70090 -4.53550 17849 ft 417 kts 296°
2026-05-07 20:55 57.71575 -4.58221 17842 ft 417 kts 296°
2026-05-07 20:55 57.73055 -4.62878 17844 ft 417 kts 296°
2026-05-07 20:55 57.74520 -4.67495 17841 ft 417 kts 296°
2026-05-07 20:55 57.76000 -4.72171 17848 ft 418 kts 296°
2026-05-07 20:56 57.77479 -4.76859 17838 ft 418 kts 296°
2026-05-07 20:56 57.78962 -4.81565 17827 ft 419 kts 296°
2026-05-07 20:56 57.80439 -4.86260 17875 ft 418 kts 295°
2026-05-07 20:56 57.81915 -4.90962 17832 ft 418 kts 295°
2026-05-07 20:57 57.83393 -4.95683 17854 ft 418 kts 295°
2026-05-07 20:57 57.84867 -5.00401 17833 ft 418 kts 295°
2026-05-07 20:57 57.86339 -5.05118 17831 ft 419 kts 295°
2026-05-07 20:57 57.87809 -5.09837 17835 ft 418 kts 295°
2026-05-07 20:58 57.89253 -5.14472 17814 ft 402 kts 295°
2026-05-07 20:58 57.90630 -5.18901 17484 ft 393 kts 294°
2026-05-07 20:58 57.91993 -5.23305 17032 ft 386 kts 294°
2026-05-07 20:58 57.93332 -5.27649 16530 ft 380 kts 294°
2026-05-07 20:59 57.94648 -5.31931 15990 ft 375 kts 294°
2026-05-07 20:59 57.95947 -5.36165 15466 ft 371 kts 294°
2026-05-07 20:59 57.97230 -5.40354 14940 ft 367 kts 294°
2026-05-07 20:59 57.98487 -5.44464 14440 ft 363 kts 294°
2026-05-07 21:00 57.99743 -5.48577 13931 ft 360 kts 294°
2026-05-07 21:00 58.00986 -5.52655 13462 ft 357 kts 293°
2026-05-07 21:00 58.02219 -5.56707 12889 ft 354 kts 293°
2026-05-07 21:00 58.03443 -5.60737 12348 ft 351 kts 293°
2026-05-07 21:01 58.04636 -5.64671 11848 ft 347 kts 293°
2026-05-07 21:01 58.05830 -5.68612 11349 ft 344 kts 293°
2026-05-07 21:01 58.07013 -5.72527 10866 ft 341 kts 293°
2026-05-07 21:01 58.08174 -5.76369 10665 ft 330 kts 293°
2026-05-07 21:02 58.09297 -5.80084 10512 ft 318 kts 293°
2026-05-07 21:02 58.10375 -5.83658 10370 ft 308 kts 292°
2026-05-07 21:02 58.11402 -5.87073 10238 ft 297 kts 292°
2026-05-07 21:02 58.12408 -5.90424 10114 ft 288 kts 292°
2026-05-07 21:03 58.13382 -5.93678 9975 ft 278 kts 292°
2026-05-07 21:03 58.14321 -5.96818 9870 ft 270 kts 291°
2026-05-07 21:03 58.15228 -5.99862 9745 ft 262 kts 291°
2026-05-07 21:03 58.16121 -6.02867 9454 ft 260 kts 291°
2026-05-07 21:04 58.16997 -6.05803 9389 ft 251 kts 291°
2026-05-07 21:04 58.17848 -6.08664 9155 ft 247 kts 291°
2026-05-07 21:04 58.18676 -6.11454 8920 ft 245 kts 291°
2026-05-07 21:04 58.19509 -6.14261 8682 ft 242 kts 290°
2026-05-07 21:05 58.20323 -6.16999 8452 ft 234 kts 290°
2026-05-07 21:05 58.20838 -6.19783 8216 ft 216 kts 268°
2026-05-07 21:05 58.20972 -6.22552 8134 ft 209 kts 268°
2026-05-07 21:05 58.21123 -6.25301 8029 ft 209 kts 268°
2026-05-07 21:06 58.21277 -6.28045 7940 ft 209 kts 269°
2026-05-07 21:06 58.21757 -6.30702 7809 ft 226 kts 298°
2026-05-07 21:06 58.22995 -6.32707 7651 ft 245 kts 325°
2026-05-07 21:06 58.24668 -6.33595 7456 ft 259 kts 345°
2026-05-07 21:07 58.26482 -6.33983 7206 ft 263 kts 348°
2026-05-07 21:07 58.28292 -6.34312 6948 ft 259 kts 348°
2026-05-07 21:07 58.30071 -6.34655 6697 ft 254 kts 348°
2026-05-07 21:07 58.31813 -6.35007 6456 ft 249 kts 347°
2026-05-07 21:08 58.33397 -6.35942 6199 ft 228 kts 314°
2026-05-07 21:08 58.34423 -6.38024 6008 ft 210 kts 299°
2026-05-07 21:08 58.35347 -6.40141 5780 ft 206 kts 300°
2026-05-07 21:08 58.36257 -6.42222 5548 ft 202 kts 299°
2026-05-07 21:09 58.37145 -6.44257 5361 ft 202 kts 299°
2026-05-07 21:09 58.38058 -6.46295 5153 ft 206 kts 306°
2026-05-07 21:09 58.39333 -6.47748 4897 ft 224 kts 338°
2026-05-07 21:09 58.40924 -6.47773 4663 ft 237 kts 14°
2026-05-07 21:10 58.42340 -6.46184 4394 ft 239 kts 51°
2026-05-07 21:10 58.43090 -6.43475 4124 ft 224 kts 89°
2026-05-07 21:10 58.43006 -6.40707 3989 ft 202 kts 120°
2026-05-07 21:10 58.42311 -6.38541 3777 ft 184 kts 146°
2026-05-07 21:11 58.41292 -6.37317 3555 ft 164 kts 175°
2026-05-07 21:11 58.40212 -6.37041 3392 ft 154 kts 178°
2026-05-07 21:11 58.38167 -6.36397 3006 ft 145 kts 180°
2026-05-07 21:12 58.37173 -6.36151 2820 ft 142 kts 181°
2026-05-07 21:12 58.36191 -6.35932 2641 ft 142 kts 181°
2026-05-07 21:12 58.35209 -6.35728 2492 ft 142 kts 181°
2026-05-07 21:12 58.34234 -6.35533 2322 ft 142 kts 182°
2026-05-07 21:13 58.33253 -6.35340 2124 ft 140 kts 182°
2026-05-07 21:13 58.32290 -6.35154 1934 ft 138 kts 181°
2026-05-07 21:13 58.31330 -6.34970 1752 ft 140 kts 180°
2026-05-07 21:13 58.30376 -6.34786 1586 ft 134 kts 180°
2026-05-07 21:14 58.29487 -6.34615 1428 ft 126 kts 181°
2026-05-07 21:14 58.28611 -6.34449 1260 ft 127 kts 181°
2026-05-07 21:14 58.27715 -6.34280 1070 ft 131 kts 180°
2026-05-07 21:14 58.26791 -6.34104 887 ft 135 kts 178°
2026-05-07 21:15 58.25842 -6.33924 698 ft 139 kts 178°
2026-05-07 21:15 58.24885 -6.33739 549 ft 138 kts 178°
2026-05-07 21:15 58.23934 -6.33534 365 ft 140 kts 178°
2026-05-07 21:15 58.22961 -6.33363 153 ft 137 kts 178°
2026-05-07 21:16 58.22041 -6.33190 27 ft 125 kts 177°
2026-05-07 21:16 58.21347 -6.33063 18 ft 70 kts 174°
2026-05-07 21:16 58.21064 -6.33009 23 ft 18 kts 174°
2026-05-07 21:16 58.21004 -6.32998 25 ft 6 kts 175°
2026-05-07 21:17 58.20978 -6.32994 26 ft 2 kts 176°
2026-05-07 21:17 58.20963 -6.32992 26 ft 2 kts 176°
2026-05-07 21:17 58.20948 -6.32991 27 ft 2 kts 177°
2026-05-07 21:17 58.20929 -6.32982 27 ft 3 kts 155°
2026-05-07 21:18 58.20919 -6.32945 27 ft 4 kts 99°
2026-05-07 21:18 58.20922 -6.32865 26 ft 8 kts 84°
2026-05-07 21:18 58.20932 -6.32736 26 ft 11 kts 82°
2026-05-07 21:18 58.20945 -6.32606 23 ft 11 kts 64°
2026-05-07 21:19 58.20998 -6.32535 18 ft 8 kts
2026-05-07 21:19 58.21053 -6.32539 18 ft 8 kts 355°
2026-05-07 21:19 58.21088 -6.32545 19 ft 8 kts 355°
2026-05-07 21:19 58.21140 -6.32553 20 ft 7 kts 355°
2026-05-07 21:20 58.21190 -6.32561 20 ft 7 kts 355°
2026-05-07 21:20 58.21238 -6.32568 20 ft 7 kts 355°
2026-05-07 21:20 58.21286 -6.32575 20 ft 7 kts 355°
2026-05-07 21:20 58.21333 -6.32582 22 ft 7 kts 356°
2026-05-07 21:21 58.21376 -6.32560 22 ft 7 kts 30°
2026-05-07 21:21 58.21407 -6.32499 20 ft 6 kts 53°
2026-05-07 21:21 58.21434 -6.32434 20 ft 6 kts 52°
2026-05-07 21:21 58.21457 -6.32364 20 ft 6 kts 69°
2026-05-07 21:22 58.21464 -6.32285 20 ft 6 kts 84°
2026-05-07 21:22 58.21468 -6.32207 20 ft 6 kts 85°
2026-05-07 21:22 58.21470 -6.32147 20 ft 4 kts 89°
2026-05-07 21:22 58.21452 -6.32119 20 ft 2 kts 175°
2026-05-07 21:23 58.21438 -6.32117 20 ft 1 kts 174°
2026-05-07 21:23 58.21435 -6.32116 20 ft 0 kts 174°